Trophée des P'tits Patelins

Le Trail Des Nutons - Solwaster (10.00 km)

samedi 05 octobre 2019

Vous pouvez trouver Le classement original sur : www.traildesnutons.be
TROPHÉE DES P'TITS PATELINS
LE TRAIL DES NUTONS - SOLWASTER
DISTANCE : 10.00 km
samedi 05 octobre 2019
 
Place dos NOM Catégorie Pl/cat temps temps/km Vitesse
01:00:00              
1 1049 STEPHAN TANGUY HOMME 1 00:49:26 04:57 12.14
2 1182 NELISSEN GILL HOMME 2 00:49:34 04:57 12.10
3 1078 THOMSON FREDERIC HOMME 3 00:50:43 05:04 11.83
4 1011 BROCHARD VINCENT HOMME 4 00:53:42 05:22 11.17
5 999 DESSART MARIE DAME 1 00:54:34 05:27 11.00
6 1046 PASTEGER LOÏC HOMME 5 00:55:47 05:35 10.76
7 1191 VANDEN BULCK CHRISTOPHE HOMME 6 00:56:46 05:41 10.57
8 1091 DEBIOLLE GEORGES HOMME 7 00:57:18 05:44 10.47
9 1190 DEBROUX SEBASTIEN HOMME 8 00:57:29 05:45 10.44
10 1039 DECKERS HUGO HOMME 9 00:57:45 05:47 10.39
11 1109 DEJARDIN FRED HOMME 10 00:58:52 05:53 10.19
12 1192 WANSART PIERRE HOMME 11 00:59:07 05:55 10.15
13 1034 LÉONARD STEVE HOMME 12 00:59:15 05:55 10.13
14 1063 MALARDEAU FLORIAN HOMME 13 01:00:04 06:00 9.99
15 1112 DUBOIS CHRISTOPHE HOMME 14 01:00:07 06:01 9.98
16 1045 MIÉVIS KEVIN HOMME 15 01:01:43 06:10 9.72
17 108 JENNIGES ALEXANDER HOMME 16 01:01:55 06:12 9.69
18 1168 FOGUENNE JOSE HOMME 17 01:02:01 06:12 9.67
19 1170 PAULUS MARIE-ANNE DAME 2 01:02:05 06:13 9.66
20 1037 STEMBERT CHRISTOPHE HOMME 18 01:02:07 06:13 9.66
21 1005 DALLA CORTE LUDOVIC HOMME 19 01:02:14 06:13 9.64
22 1025 NAILIS JULIEN HOMME 20 01:02:40 06:16 9.57
23 1094 COLLARD SOPHIE DAME 3 01:02:58 06:18 9.53
24 1187 VAN LANCKER GEROME HOMME 21 01:04:06 06:25 9.36
25 1077 DE CECCO JONATHAN HOMME 22 01:04:10 06:25 9.35
26 1103 BATTAGLIA ANTHONY HOMME 23 01:04:45 06:29 9.27
27 1105 ALLAER ARNAUD HOMME 24 01:04:48 06:29 9.26
28 1035 BRANDT SEBASTIEN HOMME 25 01:04:59 06:30 9.23
29 1174 BEAUMONT SONIA DAME 4 01:05:25 06:32 9.17
30 1088 DECHAMPS VALERIE DAME 5 01:05:39 06:34 9.14
31 1173 HAGEMANN PHILIPPE HOMME 26 01:05:41 06:34 9.13
32 1195 BRAGARD ALAIN HOMME 27 01:06:08 06:37 9.07
33 1156 CRUTZEN PHILIPPE HOMME 28 01:07:09 06:43 8.94
34 1047 DUCHESNE PASCAL HOMME 29 01:07:12 06:43 8.93
35 1020 SEPULCHRE ARNAUD HOMME 30 01:07:23 06:44 8.90
36 1012 VAN GENECHTEN BRAM HOMME 31 01:07:46 06:47 8.85
37 1159 BENIERO DANIEL HOMME 32 01:08:12 06:49 8.80
38 1116 DHEUR CHRISTOPHE HOMME 33 01:08:44 06:52 8.73
39 1113 TRILLET LAURENT HOMME 34 01:08:47 06:53 8.72
40 1161 DE CECCO MICHAEL HOMME 35 01:09:50 06:59 8.59
41 1075 GOEZ PATRICK HOMME 36 01:10:34 07:03 8.50
42 1074 PETERS ANNICK DAME 6 01:10:37 07:04 8.50
43 1019 SENEN CHRISTIAN HOMME 37 01:10:45 07:04 8.48
44 19 BASTIN VINCENT HOMME 38 01:10:52 07:05 8.47
45 1085 EGRI NICOLAS HOMME 39 01:11:05 07:07 8.44
46 1030 BRASSEUR AURORE DAME 7 01:11:23 07:08 8.41
47 1178 PIRON SARAH DAME 8 01:11:28 07:09 8.40
48 1163 HUBERMONT FABIEN HOMME 40 01:11:36 07:10 8.38
49 1076 BELBOOM ANDRE HOMME 41 01:11:40 07:10 8.37
50 95 ALBERT VALÉRIE DAME 9 01:11:45 07:10 8.36
51 1015 FILOT JOEL HOMME 42 01:11:56 07:12 8.34
52 1052 LIPPERTZ SYLVIA DAME 10 01:12:01 07:12 8.33
53 1179 BINOT ALEXANDRE HOMME 43 01:12:10 07:13 8.31
54 1158 HEINEN MICHEL HOMME 44 01:13:37 07:22 8.15
55 1040 GROJEAN PHILIPPE HOMME 45 01:13:40 07:22 8.14
56 1053 JEROME FREDERIC HOMME 46 01:13:43 07:22 8.14
57 1169 HERCK PASCAL HOMME 47 01:13:46 07:23 8.13
58 1067 GERARD LUCIE DAME 11 01:13:53 07:23 8.12
59 1050 KEYSER CHRISTIAN HOMME 48 01:13:56 07:24 8.12
60 1033 DEMOULIN CHLOÉ DAME 12 01:13:59 07:24 8.11
61 1082 SPRUMONT FRANCIS HOMME 49 01:14:47 07:29 8.02
62 1018 DARIMONT FREDDY HOMME 50 01:15:16 07:32 7.97
63 1106 MARAITE MANUEL HOMME 51 01:15:25 07:32 7.96
64 1006 CORNET SOPHIE DAME 13 01:15:36 07:34 7.94
65 1032 RAMET ÉMILIE DAME 14 01:16:02 07:36 7.89
66 1095 WOYAFFE CAROLINE DAME 15 01:16:04 07:36 7.89
67 1022 MERTES ISABELLE DAME 16 01:16:15 07:38 7.87
68 1021 STEPHANY CHRISTIAN HOMME 52 01:16:17 07:38 7.87
69 1079 KLIMEK ALEK HOMME 53 01:16:35 07:39 7.83
70 1081 GROSJEAN VINCIANE DAME 17 01:16:54 07:41 7.80
71 1068 RIVART ISABELLE DAME 18 01:17:42 07:46 7.72
72 1188 HOGGE LAURENCE DAME 19 01:17:46 07:47 7.72
73 1111 LIVET CHARLENE DAME 20 01:17:47 07:47 7.71
74 1110 DEDERICKS MARGOT DAME 21 01:17:49 07:47 7.71
75 1184 FONSNY SANDRINE DAME 22 01:17:51 07:47 7.71
76 1114 BRACH BENJAMIN HOMME 54 01:17:53 07:47 7.70
77 1080 PEETERS MICHAEL HOMME 55 01:18:21 07:50 7.66
78 1087 GERKENS DANIEL HOMME 56 01:18:24 07:50 7.65
79 1065 MULLENDER CELINE HOMME 57 01:18:30 07:51 7.64
80 1102 PIRON MARIE-MARTINE DAME 23 01:18:32 07:51 7.64
81 1104 DELMOTTE SEBASTIEN HOMME 58 01:18:41 07:52 7.63
82 1197 DOUMEN ALEXANDRA DAME 24 01:19:03 07:54 7.59
83 1196 DOEMEN JEAN-CHRISTOPHE HOMME 59 01:19:08 07:55 7.58
84 1064 RANDRIAMAMPIANINA LIVA DAME 25 01:19:26 07:57 7.55
85 1157 BERTRAND THIERRY HOMME 60 01:19:32 07:57 7.54
86 1116 DHEUR CHRISTOPHE HOMME 61 01:19:34 07:57 7.54
87 1026 MARTINEZ AURÉLIE DAME 26 01:19:52 07:59 7.51
88 1164 GREGOIRE THIERRY HOMME 62 01:19:56 08:00 7.51
89 1166 DEFAWES ELISE DAME 27 01:19:58 08:00 7.50
90 1007 SIQUET PASCALE DAME 28 01:20:01 08:00 7.50
91 1061 LUTHERS FRANÇOIS HOMME 63 01:20:03 08:00 7.50
92 1072 WIAME AUDREY DAME 29 01:20:14 08:01 7.48
93 1062 VIEILLEVOYE LAETITIA DAME 30 01:20:48 08:05 7.43
94 1180 JANSSEN PASCAL HOMME 64 01:21:12 08:07 7.39
95 1093 JURKLEWLECZ YVES HOMME 65 01:21:15 08:07 7.38
96 1066 WARNOTTE PATRICK HOMME 66 01:21:34 08:09 7.36
97 1086 PIRARD PIERRE HOMME 67 01:21:37 08:10 7.35
98 1048 BRISY VINCENT HOMME 68 01:21:40 08:10 7.35
99 1185 DEWALQUE THIERRY HOMME 69 01:21:43 08:10 7.34
100 1028 LEYS KEVIN HOMME 70 01:21:54 08:11 7.33
101 1029 PAMELARD GÉRALDINE DAME 31 01:22:33 08:15 7.27
102 1059 VERMEERSCH LAETITIA DAME 32 01:22:39 08:16 7.26
103 1084 THEUNNEN EMMANUEL HOMME 71 01:22:49 08:17 7.24
104 1083 LEJOLY CELINE DAME 33 01:22:52 08:17 7.24
105 1189 ZIANT CHRISTOPHE HOMME 72 01:23:38 08:22 7.17
106 1165 DOHOGNE SYLVIE DAME 34 01:24:04 08:24 7.14
107 1090 BUVENS MURIELLE DAME 35 01:24:07 08:25 7.13
108 1115 BRACH CHRISTOPHE HOMME 73 01:24:28 08:27 7.10
109 1001 BRASSEUR ROBERT HOMME 74 01:24:59 08:30 7.06
110 1194 MARAITE CALI DAME 36 01:25:06 08:31 7.05
111 1107 OHN VERONIQUE DAME 37 01:25:08 08:31 7.05
112 1092 DENOEL MAXIME HOMME 75 01:25:26 08:33 7.02
113 1181 THYWISSEN MICHELLE DAME 38 01:25:37 08:34 7.01
114 1070 WILSLEZ SANDRA DAME 39 01:25:40 08:34 7.00
115 1004 STASSE AMÉLIE DAME 40 01:26:34 08:39 6.93
116 1073 GOFFOY PAULINE DAME 41 01:27:04 08:42 6.89
117 1193 CHARLIER VIRGINIE DAME 42 01:27:24 08:44 6.86
118 1162 ERNOULD MARIE DAME 43 01:28:12 08:49 6.80
119 1160 RADERMECKER MARIE-ANNE DAME 44 01:28:20 08:50 6.79
120 1002 BODEUX AURÉLIE DAME 45 01:28:39 08:52 6.77
121 1038 DE SCHUTTER DIRK HOMME 76 01:28:57 08:54 6.75
122 1003 FRANSOLET CARINE DAME 46 01:29:51 08:59 6.68
123 1089 THONON NATHALIE DAME 47 01:29:58 09:00 6.67
124 1009 LAROSE HELENE DAME 48 01:30:14 09:01 6.65
125 1008 D'URSO MICHEL HOMME 77 01:30:18 09:02 6.64
126 1172 MALCHAIR CATHERINE DAME 49 01:30:23 09:02 6.64
127 1171 COLLARD ALICE DAME 50 01:30:37 09:04 6.62
128 1176 SALLE AURORE DAME 51 01:30:49 09:05 6.61
129 1177 SALLE LAURENT HOMME 78 01:30:52 09:05 6.60
130 1027 GUILLAUME CEDRIC HOMME 79 01:31:18 09:08 6.57
131 1167 MARECHAL FERNAND HOMME 80 01:31:44 09:10 6.54
132 1014 DECKERS MICHEL HOMME 81 01:32:13 09:13 6.51
133 1051 FRIPPIAT ALIX DAME 52 01:32:22 09:14 6.50
134 1054 VANDEBERG CHRISTINE DAME 53 01:37:24 09:44 6.16
135 1043 LEMPEREUR FRÉDÉRIC HOMME 82 01:37:29 09:45 6.15
136 1042 LECOMTE SANDRA DAME 54 01:37:30 09:45 6.15
137 1041 SCHAAPS ISABELLE DAME 55 01:37:48 09:47 6.13
138 1098 PAULUS PAULINE DAME 56 01:38:55 09:54 6.07
139 1097 JANSSEN JULIEN HOMME 83 01:38:58 09:54 6.06
140 1096 BOVEROUX CELINE DAME 57 01:39:00 09:54 6.06
141 1100 LOVENBERG GUY HOMME 84 01:40:03 10:00 6.00
142 1099 DHOOGH JEAN-LUC HOMME 85 01:40:06 10:01 5.99
143 1036 WINTGENS ANNE DAME 58 01:41:03 10:06 5.94
144 1017 RENSONNET VINCIANNE DAME 59 01:41:06 10:07 5.93
145 1010 LABBÉ VIRGINIE DAME 60 01:41:08 10:07 5.93
146 1024 GROBOULÈ BOUJTÈFÈS DAME 61 01:41:13 10:07 5.93
147 1023 GROBOULÈ MÈLTURBO DAME 62 01:41:18 10:08 5.92
148 1186 AMINOI FREDERIQUE DAME 63 01:42:18 10:14 5.87
149 1183 DROEVEN CARINE DAME 64 01:42:20 10:14 5.86